Home   Weather   Hagen   Past weeks

Flag for Germany Past Weather in Hagen, North Rhine-Westphalia, Germany — Yesterday and Last 2 Weeks

Now
19 °F

Cold.


Feels Like: 19 °F
Forecast: 24 / 37 °F
Wind: No wind

Location: Duesseldorf

Current Time: Dec 4, 2016 at 5:06:04 am

Latest Report: Dec 4, 2016 at 4:20 am


Visibility: N/A

Pressure: 30.33 "Hg

Humidity: 93%

Dew Point: 18 °F

Location of HagenLocation

Past Weather in Hagen — Graph

°F

Hagen Temperature Yesterday

Maximum temperature yesterday: 34 °F (at 11:50 am)
Minimum temperature yesterday: 23 °F (at 10:20 pm)
Average temperature yesterday: 28 °F

High & Low Weather Summary for the Past Weeks

 TemperatureHumidityPressure
High59 °F (Nov 20, 1:50 pm)100% (Nov 23, 4:50 am)30.60 "Hg (Nov 23, 4:50 am)
Low19 °F (Dec 4, 2:20 am)45% (Nov 29, 2:50 pm)29.30 "Hg (Nov 20, 11:20 am)
Average42 °F83%30.09 "Hg
* Reported Nov 19 3:20 am — Dec 4 3:50 am, Hagen, Weather by CustomWeather, © 2016

Note: Actual official high and low records may vary slightly from our data, if they occured in-between our weather recording intervals... More about our weather records

Advertising

Hagen Weather History for the Previous 24 Hours

Scroll right to see more
 ConditionsComfort  
Time TempWeatherWind HumidityBarometerVisibility
3:50 am
Sun, Dec 4
19 °FCold.1 mph93%30.33 "HgN/A
3:20 am19 °FCold.No wind93%30.33 "Hg5 mi
2:50 am19 °FSnow. Overcast.No wind100%30.33 "Hg5 mi
2:20 am19 °FIce fog.1 mph100%30.33 "Hg1 mi
1:50 am21 °FIce fog.1 mph100%30.33 "Hg1 mi
1:20 am21 °FIce fog.1 mph93%30.33 "Hg0 mi
12:50 am21 °FIce fog.2 mph100%30.33 "Hg0 mi
12:20 am21 °FIce fog.1 mph100%30.33 "Hg0 mi
11:50 pm
Sat, Dec 3
23 °FIce fog.1 mph100%30.33 "Hg0 mi
11:20 pm23 °FIce fog.2 mph100%30.33 "Hg0 mi
10:50 pm23 °FIce fog.2 mph100%30.33 "Hg0 mi
10:20 pm23 °FIce fog.1 mph93%30.33 "Hg0 mi
9:50 pm25 °FIce fog.1 mph93%30.33 "Hg1 mi
9:20 pm25 °FCold.2 mph100%30.33 "HgN/A
8:50 pm25 °FCold.1 mph100%30.33 "HgN/A
8:20 pm25 °FCold.1 mph100%30.33 "Hg1 mi
7:50 pm25 °FCold.1 mph100%30.33 "Hg1 mi
7:20 pm27 °FSnow. Overcast.2 mph100%30.33 "Hg1 mi
6:50 pm27 °FSleet. Overcast.1 mph100%30.33 "Hg0 mi
6:20 pm27 °FSnow. Overcast.1 mph100%30.33 "Hg1 mi
5:50 pm28 °FIce fog.1 mph100%30.33 "Hg0 mi
5:20 pm30 °FIce fog.1 mph100%30.30 "Hg0 mi
4:50 pm30 °FIce fog.3 mph100%30.30 "Hg0 mi
4:20 pm30 °FIce fog.3 mph100%30.30 "Hg0 mi
3:50 pm32 °FFog.3 mph100%30.30 "Hg0 mi
3:20 pm34 °FFog.1 mph100%30.30 "Hg0 mi
2:50 pm34 °FFog.3 mph100%30.30 "Hg0 mi
2:20 pm34 °FSleet. Cloudy.3 mph100%30.30 "Hg1 mi
1:50 pm34 °FSleet. Cloudy.3 mph100%30.30 "Hg1 mi
1:20 pm34 °FSleet. Cloudy.2 mph100%30.30 "Hg2 mi
12:50 pm34 °FSleet. Cloudy.3 mph100%30.33 "Hg1 mi
12:20 pm32 °FSleet. Cloudy.3 mph100%30.33 "Hg3 mi
11:50 am34 °FChilly.3 mph100%30.33 "Hg4 mi
11:20 am32 °FChilly.5 mph100%30.33 "Hg1 mi
10:50 am30 °FIce fog.3 mph100%30.33 "Hg0 mi
10:20 am30 °FChilly.2 mph100%30.33 "Hg1 mi
9:50 am28 °FChilly.2 mph100%30.30 "Hg1 mi
9:20 am25 °FIce fog.1 mph100%30.30 "Hg0 mi
8:50 am25 °FCold.1 mph100%30.30 "Hg1 mi
8:20 am27 °FChilly.1 mph93%30.30 "HgN/A
7:50 am27 °FFog.1 mph100%30.30 "HgN/A
7:20 am25 °FFog.1 mph100%30.27 "HgN/A
6:50 am25 °FFog.1 mph100%30.27 "HgN/A
6:20 am25 °FFog.2 mph100%30.27 "HgN/A
5:50 am25 °FFog.1 mph100%30.27 "HgN/A
5:20 am25 °FFog.1 mph100%30.27 "HgN/A
Weather by CustomWeather, © 2016

See weather overviewHow to use our weather pages